Location: Dilsberg
(49.3983°N, 8.8354°E)
Time: 22:06:33
(UTC+00:00)

Okean 3 Rocket - Pass Details

Date: 19 May 2025
Orbit: 610 x 638 km, 82.5° (Epoch: 15 June)

Event Time Altitude Azimuth Distance (km) Brightness Sun altitude
Rises 21:51:08 0° 353° (N) 2,900 8.5 -17.8°
Reaches altitude 10° 21:53:25 10° 359° (N) 1,993 7.2 -17.9°
Maximum altitude 21:57:44 53° 76° (ENE) 768 3.9 -18.2°
Enters shadow 21:59:13 36° 132° (SE) 995 4.1 -18.3°
